Location: Central Falls
(41.8900°N, 71.3929°W)
Time: 14:08:13
(UTC+00:00)

Courier 1B Rocket - Pass Details

Date: 09 December 2023
Orbit: 920 x 1202 km, 28.2° (Epoch: 01 March)

Event Time Altitude Azimuth Distance (km) Brightness Sun altitude
Rises 15:30:44 0° 232° (SW) 3,881 8.4 23.4°
Reaches altitude 10° 15:34:13 10° 218° (SW) 2,872 8.1 23.6°
Maximum altitude 15:39:19 22° 171° (S) 2,056 9.9 23.9°
Drops below altitude 10° 15:44:12 10° 123° (ESE) 2,725 8.2 24.1°
Sets 15:47:23 0° 108° (ESE) 3,633 8.4 24.2°
